Satellite: MET-2/21
Catalog number: 22782
Epoch time: 08121.62648809
Element set: 0130
Inclination: 082.5469 deg
RA of node: 149.3088 deg
Eccentricity: 0.0024146
Arg of perigee: 065.2000 deg
Mean anomaly: 295.1662 deg
Mean motion: 13.83626751 rev/day
Decay rate: 5.0e-08 rev/day^2
Epoch rev: 74055
Checksum: 293
Satellite: OKEAN-4
Catalog number: 23317
Epoch time: 08121.74621397
Element set: 0574
Inclination: 082.5417 deg
RA of node: 359.3395 deg
Eccentricity: 0.0020590
Arg of perigee: 285.5204 deg
Mean anomaly: 074.3726 deg
Mean motion: 14.82604774 rev/day
Decay rate: -2.0e-08 rev/day^2
Epoch rev: 73125
Checksum: 298
Satellite: NOAA-14
Catalog number: 23455
Epoch time: 08122.76651305
Element set: 126
Inclination: 098.9475 deg
RA of node: 194.9775 deg
Eccentricity: 0.0008487
Arg of perigee: 275.7472 deg
Mean anomaly: 084.2742 deg
Mean motion: 14.13739097 rev/day
Decay rate: -7.8e-07 rev/day^2
Epoch rev: 68779
Checksum: 359
Satellite: SICH-1
Catalog number: 23657
Epoch time: 08121.73668942
Element set: 0372
Inclination: 082.5264 deg
RA of node: 140.3256 deg
Eccentricity: 0.0022080
Arg of perigee: 277.0204 deg
Mean anomaly: 082.8506 deg
Mean motion: 14.81572398 rev/day
Decay rate: 4.8e-07 rev/day^2
Epoch rev: 68319
Checksum: 302
Satellite: NOAA-15
Catalog number: 25338
Epoch time: 08121.81176211
Element set: 0448
Inclination: 098.5534 deg
RA of node: 114.8799 deg
Eccentricity: 0.0010684
Arg of perigee: 174.3707 deg
Mean anomaly: 185.7611 deg
Mean motion: 14.24697757 rev/day
Decay rate: 6.6e-07 rev/day^2
Epoch rev: 51805
Checksum: 326
Satellite: RESURS
Catalog number: 25394
Epoch time: 08121.96652278
Element set: 0933
Inclination: 098.3899 deg
RA of node: 168.0662 deg
Eccentricity: 0.0001848
Arg of perigee: 010.6725 deg
Mean anomaly: 349.4493 deg
Mean motion: 14.24157901 rev/day
Decay rate: 7.0e-08 rev/day^2
Epoch rev: 50972
Checksum: 323
Satellite: FENGYUN1
Catalog number: 25730
Epoch time: 08121.93278792
Element set: 0455
Inclination: 098.7237 deg
RA of node: 099.3216 deg
Eccentricity: 0.0020908
Arg of perigee: 310.5090 deg
Mean anomaly: 049.4258 deg
Mean motion: 14.07709758 rev/day
Decay rate: -4.16e-06 rev/day^2
Epoch rev: 46231
Checksum: 311
Satellite: OKEAN-0
Catalog number: 25860
Epoch time: 08122.60099136
Element set: 355
Inclination: 097.7490 deg
RA of node: 115.2158 deg
Eccentricity: 0.0001927
Arg of perigee: 068.6447 deg
Mean anomaly: 291.4959 deg
Mean motion: 14.73518122 rev/day
Decay rate: 7.0e-07 rev/day^2
Epoch rev: 47253
Checksum: 306
Satellite: NOAA-16
Catalog number: 26536
Epoch time: 08121.81758631
Element set: 0915
Inclination: 099.1547 deg
RA of node: 109.9607 deg
Eccentricity: 0.0010610
Arg of perigee: 003.8178 deg
Mean anomaly: 356.3068 deg
Mean motion: 14.12477511 rev/day
Decay rate: 8.0e-07 rev/day^2
Epoch rev: 39208
Checksum: 302
Satellite: NOAA-17
Catalog number: 27453
Epoch time: 08121.76341053
Element set: 908
Inclination: 098.5368 deg
RA of node: 187.7561 deg
Eccentricity: 0.0010912
Arg of perigee: 243.2492 deg
Mean anomaly: 116.7553 deg
Mean motion: 14.23969283 rev/day
Decay rate: 6.5e-07 rev/day^2
Epoch rev: 30405
Checksum: 309
Satellite: NOAA-18
Catalog number: 28654
Epoch time: 08121.76064194
Element set: 0412
Inclination: 098.8649 deg
RA of node: 063.2798 deg
Eccentricity: 0.0015352
Arg of perigee: 087.7906 deg
Mean anomaly: 272.5032 deg
Mean motion: 14.11157854 rev/day
Decay rate: 1.59e-06 rev/day^2
Epoch rev: 15178
Checksum: 327
/EX
SB KEPS @ AMSAT $ORB08122.M
Orbital Elements 08122.MISC
HR AMSAT ORBITAL ELEMENTS FOR MANNED AND MISCELLANEOUS SATELLITES
FROM WA5QGD FORT WORTH,TX May 1, 2008
Send Subscribe/unsubscribe to KEPS at
http://www.amsat.org/mailman/listinfo/keps
BID: ORB08122.M
TO ALL RADIO AMATEURS BT
Satellite: HUBBLE
Catalog number: 20580
Epoch time: 08122.71392583
Element set: 126
Inclination: 028.4699 deg
RA of node: 266.3418 deg
Eccentricity: 0.0003780
Arg of perigee: 246.7735 deg
Mean anomaly: 113.2454 deg
Mean motion: 15.00373465 rev/day
Decay rate: 4.16e-06 rev/day^2
Epoch rev: 78799
Checksum: 309
Satellite: UARS
Catalog number: 21701
Epoch time: 08121.93901822
Element set: 0374
Inclination: 056.9742 deg
RA of node: 007.5110 deg
Eccentricity: 0.0091171
Arg of perigee: 090.4164 deg
Mean anomaly: 270.7342 deg
Mean motion: 15.51556097 rev/day
Decay rate: 7.420e-05 rev/day^2
Epoch rev: 91516
Checksum: 273
Satellite: PO-34
Catalog number: 25520
Epoch time: 08121.37462954
Element set: 0984
Inclination: 028.4590 deg
RA of node: 138.8747 deg
Eccentricity: 0.0005518
Arg of perigee: 126.3849 deg
Mean anomaly: 233.7254 deg
Mean motion: 15.17182928 rev/day
Decay rate: 5.57e-06 rev/day^2
Epoch rev: 52589
Checksum: 338
Satellite: ISS
Catalog number: 25544
Epoch time: 08122.83988875
Element set: 402
Inclination: 051.6426 deg
RA of node: 255.2461 deg
Eccentricity: 0.0007140
Arg of perigee: 158.0834 deg
Mean anomaly: 338.8487 deg
Mean motion: 15.75927978 rev/day
Decay rate: 1.7563e-04 rev/day^2
Epoch rev: 54121
Checksum: 328
Satellite: OO-38
Catalog number: 26063
Epoch time: 08121.69742839
Element set: 0200
Inclination: 100.1936 deg
RA of node: 187.7215 deg
Eccentricity: 0.0036837
Arg of perigee: 344.0070 deg
Mean anomaly: 015.9935 deg
Mean motion: 14.35833963 rev/day
Decay rate: 1.1e-07 rev/day^2
Epoch rev: 43275
Checksum: 297
Satellite: UWE-1
Catalog number: 28892
Epoch time: 08121.44078083
Element set: 0036
Inclination: 098.1008 deg
RA of node: 016.2101 deg
Eccentricity: 0.0016863
Arg of perigee: 195.2081 deg
Mean anomaly: 164.8580 deg
Mean motion: 14.59621520 rev/day
Decay rate: 1.16e-06 rev/day^2
Epoch rev: 13363
Checksum: 273
Satellite: CO-58
Catalog number: 28895
Epoch time: 08121.41001771
Element set: 0010
Inclination: 098.1039 deg
RA of node: 016.5198 deg
Eccentricity: 0.0017370
Arg of perigee: 195.5138 deg
Mean anomaly: 164.5506 deg
Mean motion: 14.59661711 rev/day
Decay rate: 1.2e-07 rev/day^2
Epoch rev: 13351
Checksum: 284
Satellite: NCUBE2
Catalog number: 28897
Epoch time: 08122.27115668
Element set: 540
Inclination: 098.1011 deg
RA of node: 017.2939 deg
Eccentricity: 0.0016665
Arg of perigee: 194.4190 deg
Mean anomaly: 165.6507 deg
Mean motion: 14.59832867 rev/day
Decay rate: 1.83e-06 rev/day^2
Epoch rev: 12592
Checksum: 320
Satellite: FCAL
Catalog number: 29667
Epoch time: 08123.12355058
Element set: 923
Inclination: 051.6237 deg
RA of node: 194.2178 deg
Eccentricity: 0.0001225
Arg of perigee: 356.4484 deg
Mean anomaly: 003.6560 deg
Mean motion: 16.18727227 rev/day
Decay rate: 2.15523e-03 rev/day^2
Epoch rev: 7913
Checksum: 294
Satellite: FALCON
Catalog number: 30776
Epoch time: 08121.94537895
Element set: 0315
Inclination: 035.4325 deg
RA of node: 079.9975 deg
Eccentricity: 0.0001811
Arg of perigee: 322.0912 deg
Mean anomaly: 037.9683 deg
Mean motion: 15.02970309 rev/day
Decay rate: 6.71e-06 rev/day^2
Epoch rev: 06303
Checksum: 299
Satellite: MAST
Catalog number: 31126
Epoch time: 08121.73924332
Element set: 315
Inclination: 098.0402 deg
RA of node: 188.0613 deg
Eccentricity: 0.0095583
Arg of perigee: 118.6835 deg
Mean anomaly: 242.4011 deg
Mean motion: 14.53419763 rev/day
Decay rate: 8.8e-07 rev/day^2
Epoch rev: 5512
Checksum: 275
Satellite: CAPE1
Catalog number: 31130
Epoch time: 08122.19365808
Element set: 295
Inclination: 098.0425 deg
RA of node: 187.6165 deg
Eccentricity: 0.0103589
Arg of perigee: 119.8333 deg
Mean anomaly: 241.3201 deg
Mean motion: 14.51958271 rev/day
Decay rate: 1.95e-06 rev/day^2
Epoch rev: 5490
Checksum: 292
/EX
More information about the Keps
mailing list